Location: Eaton
(41.3139°N, 82.0207°W)
Time: 06:34:01
(UTC+00:00)

Meteor 1-4 Rocket - Visible Passes

Search period start: 21 October 2021 00:00
Search period end: 31 October 2021 00:00
Orbit: 445 x 499 km, 81.2° (Epoch: 20 October)

Date Brightness Start Highest point End Pass type
(mag) Time Alt. Az. Time Alt. Az. Time Alt. Az.
21 Oct 5.0 01:07:09 10° SW 01:08:41 19° WSW 01:08:41 19° WSW visible
21 Oct 4.1 10:55:48 10° N 10:59:05 38° ENE 11:02:22 10° SSE visible
22 Oct 3.4 00:38:01 10° SSW 00:41:23 46° WNW 00:42:31 33° NNW visible
22 Oct 5.2 10:27:35 10° NNE 10:30:21 22° ENE 10:33:06 10° SE visible
23 Oct 2.3 00:09:14 10° S 00:12:43 89° ESE 00:16:12 10° N visible
23 Oct 5.8 09:59:55 10° NE 10:01:32 13° ENE 10:03:09 10° E visible
23 Oct 2.7 23:40:46 10° SSE 23:44:06 44° E 23:47:26 10° NNE visible
24 Oct 2.4 11:04:34 10° NNW 11:08:01 66° W 11:11:31 10° S visible
24 Oct 3.5 23:12:42 10° SSE 23:15:32 24° E 23:18:23 10° NE visible
25 Oct 5.4 00:48:08 10° WSW 00:50:28 17° WNW 00:52:48 10° NNW visible
25 Oct 2.9 10:35:53 10° N 10:39:22 63° E 10:42:52 10° SSE visible
26 Oct 4.5 00:18:37 10° SW 00:21:41 29° WNW 00:24:45 10° NNW visible
26 Oct 4.3 10:07:27 10° N 10:10:39 33° ENE 10:13:52 10° SE visible
26 Oct 3.1 23:49:34 10° SSW 23:52:57 55° WNW 23:56:21 10° N visible
27 Oct 5.3 09:39:18 10° NNE 09:41:53 19° ENE 09:44:28 10° ESE visible
27 Oct 3.7 11:13:58 10° NW 11:16:45 22° W 11:19:33 10° SW visible
27 Oct 2.3 23:20:50 10° S 23:24:17 74° E 23:27:43 10° NNE visible
28 Oct 5.9 09:11:56 10° NE 09:13:02 11° ENE 09:14:08 10° E visible
28 Oct 2.9 10:44:52 10° NNW 10:48:11 40° W 10:51:32 10° SSW visible
28 Oct 3.0 22:52:27 10° SSE 22:55:40 37° E 22:58:51 10° NNE visible
29 Oct 5.8 00:29:41 10° W 00:30:48 11° WNW 00:31:55 10° NW visible
29 Oct 2.3 10:17:24 22° NNW 10:19:34 79° W 10:23:07 10° S visible
29 Oct 5.3 23:59:23 10° WSW 00:01:56 19° WNW 00:04:30 10° NNW visible
30 Oct 3.2 09:51:03 52° E 09:51:03 52° E 09:54:22 10° SSE visible
30 Oct 4.2 23:29:59 10° SW 23:33:09 34° WNW 23:36:19 10° N visible
